Starlink 5274

operational
NORAD ID: 55395 Int'l Des: 2023-014 Owner: SPXS Country: US Constellation: starlink
LEOCIRCULAR

关于 Starlink 5274

正在加载描述...

实时位置

正在加载3D地球...

即将过境

高度历史

Altitude vs Time

uPlot chart will show altitude changes over time

两行轨道根数

1 55395U 23014E 25303.00151875 .00000013 00000-0 88671-5 0 9996
2 55395 70.0007 33.7967 0003117 269.9539 90.1263 14.98328957152480
Epoch: Oct 30, 2025 • Age: 12 hours

当前状态

高度 594.2 km
速度 7.56 km/s
星下点 -65.39°S, 113.39°E
发射日期 Jan 31, 2023
运行时间 2.7 years
类型 internet

技术详情

分类 Payload
质量 305.00 kg
干质量 290.00 kg
总质量 305.00 kg
长度 0.20 m
直径 2.80 m
跨度 9.00 m
形状 Box + pan
制造商 SPXS
平台类型 Starlink
阶段状态 In Orbit
所有者/国家 SPXS/US

大型星座

Loading constellations...